This is the latest recevied weather packets stored in our database for station/object AD7ZD. If no packets are shown the sender has not sent any weather packets the latest 1 day(s).
| Time | Temp. | Humidity | Pressure | Rain* | Wind** | Luminosity | Snow |
|---|---|---|---|---|---|---|---|
| 1778036259 | 16.67° C | 48% | 1010.4 hPa | 0 mm | 2.68 m/s, 159° | 0 W/m² | - |
| 1778035956 | 16.67° C | 47% | 1010.1 hPa | 0 mm | 2.24 m/s, 180° | 0 W/m² | - |
| 1778035653 | 16.67° C | 47% | 1010.2 hPa | 0 mm | 2.24 m/s, 170° | 1 W/m² | - |
| 1778035349 | 16.67° C | 47% | 1010.2 hPa | 0 mm | 3.13 m/s, 153° | 7 W/m² | - |
| 1778035045 | 17.22° C | 46% | 1010.2 hPa | 0 mm | 3.13 m/s, 152° | 12 W/m² | - |
| 1778034743 | 17.22° C | 45% | 1010.2 hPa | 0 mm | 3.58 m/s, 133° | 16 W/m² | - |
| 1778034439 | 17.22° C | 44% | 1010.1 hPa | 0 mm | 4.47 m/s, 159° | 22 W/m² | - |
| 1778034137 | 17.78° C | 44% | 1010 hPa | 0 mm | 3.58 m/s, 169° | 26 W/m² | - |
| 1778033835 | 17.78° C | 43% | 1010 hPa | 0 mm | 2.68 m/s, 163° | 29 W/m² | - |
| 1778033532 | 17.78° C | 43% | 1010 hPa | 0 mm | 3.13 m/s, 142° | 35 W/m² | - |
| 1778033229 | 17.78° C | 43% | 1009.7 hPa | 0 mm | 4.02 m/s, 160° | 39 W/m² | - |
| 1778032927 | 18.33° C | 43% | 1009.8 hPa | 0 mm | 1.34 m/s, 153° | 48 W/m² | - |
| 1778032624 | 18.33° C | 42% | 1009.7 hPa | 0 mm | 2.24 m/s, 166° | 73 W/m² | - |
| 1778032321 | 18.33° C | 41% | 1009.5 hPa | 0 mm | 2.68 m/s, 159° | 87 W/m² | - |
| 1778032018 | 17.78° C | 42% | 1009.5 hPa | 0 mm | 3.58 m/s, 138° | 108 W/m² | - |
| 1778031714 | 18.33° C | 42% | 1009.7 hPa | 0 mm | 2.68 m/s, 158° | 116 W/m² | - |
| 1778031412 | 18.33° C | 42% | 1010.1 hPa | 0 mm | 4.47 m/s, 146° | 133 W/m² | - |
| 1778031109 | 18.89° C | 42% | 1010 hPa | 0 mm | 3.13 m/s, 136° | 149 W/m² | - |
| 1778030805 | 18.89° C | 41% | 1009.7 hPa | 0 mm | 1.79 m/s, 194° | 158 W/m² | - |
| 1778030502 | 18.89° C | 43% | 1009.8 hPa | 0 mm | 1.34 m/s, 173° | 171 W/m² | - |
| 1778030199 | 18.33° C | 41% | 1009.8 hPa | 0 mm | 2.68 m/s, 191° | 190 W/m² | - |
| 1778029895 | 18.89° C | 43% | 1010 hPa | 0 mm | 1.79 m/s, 180° | 208 W/m² | - |
| 1778029595 | 18.89° C | 42% | 1010 hPa | 0 mm | 2.24 m/s, 192° | 241 W/m² | - |
| 1778029291 | 18.89° C | 41% | 1009.8 hPa | 0 mm | 2.24 m/s, 156° | 253 W/m² | - |
| 1778028988 | 18.89° C | 42% | 1009.8 hPa | 0 mm | 3.13 m/s, 202° | 265 W/m² | - |
* Rain latest hour (hover to see other rain measurements)
** Current wind speed in m/s (hover to see current wind gust speed)